When you browse on this site, cookies collect data to enhance your experience and personalize the content and advertising you see.
Visit our Privacy Policy to learn more. By continuing to use the site, you agree to this use of cookies and data.
  • In Hungary
  • List of Countries
  • For 7 days
  • Water Temperature
  • Weather Map
  • News
  • Weather Widgets
  • user-avatar
    Login

    Hourly Weather View Royal

    Today, 18 November, Monday

    Time Temperature Precipitation Wind Pressure Humidity
    00:00 +9°C° 0 mm 1 mps 758 mmHg 91%
    01:00 +9°C° 0 mm 1 mps 758 mmHg 89%
    02:00 +9°C° 0 mm 1 mps 757 mmHg 89%
    03:00 +9°C° 0 mm 1 mps 756 mmHg 89%
    04:00 +8°C° 0 mm 0 mps 756 mmHg 89%
    05:00 +9°C° 0 mm 1 mps 755 mmHg 90%
    06:00 +9°C° 0 mm 1 mps 754 mmHg 91%
    07:00 +9°C° 0 mm 1 mps 754 mmHg 93%
    08:00 +10°C° 0 mm 1 mps 753 mmHg 91%
    09:00 +10°C° 0 mm 1 mps 752 mmHg 90%
    10:00 +11°C° 0 mm 1 mps 751 mmHg 89%
    11:00 +11°C° 0 mm 1 mps 751 mmHg 89%
    12:00 +11°C° 0 mm 1 mps 750 mmHg 90%
    13:00 +10°C° 0 mm 2 mps 749 mmHg 90%
    14:00 +10°C° 0.3 mm 1 mps 748 mmHg 92%
    15:00 +10°C° 0.3 mm 1 mps 748 mmHg 93%
    16:00 +10°C° 0.3 mm 1 mps 747 mmHg 95%
    17:00 +10°C° 1 mm 1 mps 747 mmHg 96%
    18:00 +9°C° 1 mm 1 mps 746 mmHg 96%
    19:00 +9°C° 1 mm 1 mps 745 mmHg 97%
    20:00 +8°C° 1.3 mm 2 mps 746 mmHg 97%
    21:00 +8°C° 1.3 mm 2 mps 746 mmHg 96%
    22:00 +8°C° 1.3 mm 2 mps 746 mmHg 96%
    23:00 +8°C° 0.4 mm 2 mps 746 mmHg 96%

    Tomorrow, 19 November, Tuesday

    Time Temperature Precipitation Wind Pressure Humidity
    00:00 +8°C° 0.4 mm 2 mps 747 mmHg 96%
    01:00 +9°C° 0.4 mm 1 mps 747 mmHg 96%
    02:00 +9°C° 0.2 mm 1 mps 747 mmHg 96%
    03:00 +9°C° 0.2 mm 1 mps 748 mmHg 96%
    04:00 +8°C° 0.2 mm 2 mps 748 mmHg 95%
    05:00 +9°C° 0 mm 1 mps 748 mmHg 95%
    06:00 +8°C° 0 mm 1 mps 749 mmHg 95%
    07:00 +8°C° 0 mm 1 mps 749 mmHg 94%
    08:00 +7°C° 0 mm 2 mps 750 mmHg 91%
    09:00 +8°C° 0 mm 2 mps 750 mmHg 88%
    10:00 +9°C° 0 mm 3 mps 751 mmHg 85%
    11:00 +9°C° 0 mm 3 mps 751 mmHg 81%
    12:00 +10°C° 0 mm 3 mps 752 mmHg 77%
    13:00 +10°C° 0 mm 2 mps 752 mmHg 73%
    14:00 +10°C° 0 mm 2 mps 752 mmHg 77%
    15:00 +9°C° 0 mm 2 mps 753 mmHg 80%
    16:00 +8°C° 0 mm 2 mps 753 mmHg 84%
    17:00 +9°C° 0 mm 1 mps 754 mmHg 86%
    18:00 +8°C° 0 mm 1 mps 754 mmHg 88%
    19:00 +7°C° 0 mm 1 mps 755 mmHg 90%
    20:00 +7°C° 0 mm 1 mps 755 mmHg 88%
    21:00 +7°C° 0 mm 1 mps 756 mmHg 86%
    22:00 +6°C° 0 mm 2 mps 756 mmHg 85%
    23:00 +5°C° 0 mm 2 mps 756 mmHg 83%

    Day after tomorrow, 20 November, Wednesday

    Time Temperature Precipitation Wind Pressure Humidity
    00:00 +5°C° 0 mm 2 mps 757 mmHg 81%
    01:00 +5°C° 0 mm 2 mps 757 mmHg 78%
    02:00 +5°C° 0 mm 2 mps 757 mmHg 79%
    03:00 +4°C° 0 mm 2 mps 757 mmHg 79%
    04:00 +4°C° 0 mm 2 mps 757 mmHg 79%
    05:00 +4°C° 0 mm 2 mps 757 mmHg 80%
    06:00 +4°C° 0 mm 2 mps 757 mmHg 81%
    07:00 +4°C° 0 mm 2 mps 757 mmHg 81%
    08:00 +5°C° 0 mm 2 mps 757 mmHg 78%
    09:00 +5°C° 0 mm 3 mps 757 mmHg 74%
    10:00 +7°C° 0 mm 3 mps 757 mmHg 71%
    11:00 +8°C° 0 mm 3 mps 757 mmHg 67%
    12:00 +9°C° 0 mm 2 mps 756 mmHg 63%
    13:00 +10°C° 0 mm 2 mps 756 mmHg 60%
    14:00 +9°C° 0 mm 2 mps 756 mmHg 65%
    15:00 +8°C° 0 mm 2 mps 756 mmHg 70%
    16:00 +7°C° 0 mm 2 mps 755 mmHg 76%
    17:00 +6°C° 0 mm 2 mps 755 mmHg 74%
    18:00 +6°C° 0 mm 1 mps 755 mmHg 72%
    19:00 +5°C° 0 mm 1 mps 755 mmHg 71%
    20:00 +5°C° 0 mm 1 mps 755 mmHg 69%
    21:00 +5°C° 0 mm 1 mps 755 mmHg 68%
    22:00 +5°C° 0 mm 1 mps 756 mmHg 67%
    23:00 +5°C° 0 mm 1 mps 755 mmHg 67%

    21 November, Thursday

    Time Temperature Precipitation Wind Pressure Humidity
    00:00 +5°C° 0 mm 1 mps 755 mmHg 67%
    01:00 +4°C° 0 mm 1 mps 755 mmHg 67%
    02:00 +4°C° 0 mm 1 mps 755 mmHg 68%
    03:00 +3°C° 0 mm 2 mps 755 mmHg 69%
    04:00 +3°C° 0 mm 2 mps 755 mmHg 70%
    05:00 +3°C° 0 mm 2 mps 754 mmHg 72%
    06:00 +3°C° 0 mm 2 mps 754 mmHg 74%
    07:00 +2°C° 0 mm 2 mps 754 mmHg 76%
    08:00 +4°C° 0 mm 2 mps 754 mmHg 74%
    09:00 +5°C° 0 mm 2 mps 754 mmHg 71%
    10:00 +6°C° 0 mm 2 mps 753 mmHg 68%
    11:00 +7°C° 0 mm 2 mps 753 mmHg 66%
    12:00 +7°C° 0 mm 2 mps 753 mmHg 64%
    13:00 +8°C° 0 mm 2 mps 753 mmHg 63%
    14:00 +7°C° 0 mm 2 mps 753 mmHg 68%
    15:00 +6°C° 0 mm 2 mps 753 mmHg 74%
    16:00 +5°C° 0 mm 2 mps 753 mmHg 79%
    17:00 +5°C° 0 mm 2 mps 754 mmHg 78%
    18:00 +4°C° 0 mm 2 mps 754 mmHg 77%
    19:00 +4°C° 0 mm 2 mps 754 mmHg 76%
    20:00 +5°C° 0 mm 1 mps 754 mmHg 73%
    21:00 +5°C° 0 mm 1 mps 755 mmHg 71%
    22:00 +5°C° 0 mm 1 mps 755 mmHg 68%
    23:00 +5°C° 0 mm 1 mps 755 mmHg 67%

    22 November, Friday

    Time Temperature Precipitation Wind Pressure Humidity
    00:00 +5°C° 0 mm 1 mps 756 mmHg 66%
    01:00 +5°C° 0 mm 1 mps 756 mmHg 64%
    02:00 +5°C° 0 mm 1 mps 756 mmHg 63%
    03:00 +5°C° 0 mm 1 mps 757 mmHg 62%
    04:00 +5°C° 0 mm 1 mps 757 mmHg 61%
    05:00 +5°C° 0 mm 1 mps 757 mmHg 61%
    06:00 +5°C° 0 mm 1 mps 758 mmHg 61%
    07:00 +4°C° 0 mm 1 mps 758 mmHg 62%
    08:00 +6°C° 0 mm 1 mps 758 mmHg 59%
    09:00 +7°C° 0 mm 1 mps 758 mmHg 56%
    10:00 +8°C° 0 mm 1 mps 759 mmHg 53%
    11:00 +9°C° 0 mm 1 mps 759 mmHg 53%
    12:00 +10°C° 0 mm 1 mps 759 mmHg 53%
    13:00 +10°C° 0 mm 1 mps 759 mmHg 53%
    14:00 +9°C° 0 mm 1 mps 759 mmHg 60%
    15:00 +8°C° 0 mm 1 mps 759 mmHg 67%
    16:00 +6°C° 0 mm 0 mps 759 mmHg 75%
    17:00 +5°C° 0 mm 0 mps 759 mmHg 76%
    18:00 +5°C° 0 mm 0 mps 760 mmHg 77%
    19:00 +4°C° 0 mm 0 mps 760 mmHg 78%
    20:00 +4°C° 0 mm 0 mps 760 mmHg 77%
    21:00 +5°C° 0 mm 1 mps 760 mmHg 77%
    22:00 +5°C° 0 mm 1 mps 760 mmHg 76%
    23:00 +5°C° 0 mm 1 mps 760 mmHg 76%

    23 November, Saturday

    Time Temperature Precipitation Wind Pressure Humidity
    00:00 +4°C° 0 mm 0 mps 760 mmHg 77%
    01:00 +4°C° 0 mm 0 mps 760 mmHg 77%
    02:00 +4°C° 0 mm 0 mps 760 mmHg 77%
    03:00 +5°C° 0 mm 0 mps 760 mmHg 76%
    04:00 +5°C° 0 mm 0 mps 760 mmHg 76%
    05:00 +5°C° 0 mm 0 mps 760 mmHg 76%
    06:00 +6°C° 0 mm 1 mps 760 mmHg 77%
    07:00 +6°C° 0 mm 1 mps 760 mmHg 77%
    08:00 +7°C° 0 mm 1 mps 760 mmHg 76%
    09:00 +8°C° 0 mm 1 mps 761 mmHg 75%
    10:00 +8°C° 0 mm 1 mps 761 mmHg 74%
    11:00 +9°C° 0 mm 1 mps 760 mmHg 72%
    12:00 +10°C° 0 mm 1 mps 760 mmHg 71%
    13:00 +9°C° 0 mm 2 mps 760 mmHg 69%
    14:00 +9°C° 0 mm 2 mps 760 mmHg 74%
    15:00 +8°C° 0 mm 2 mps 759 mmHg 79%
    16:00 +7°C° 0 mm 2 mps 759 mmHg 83%
    17:00 +7°C° 0 mm 2 mps 759 mmHg 83%
    18:00 +7°C° 0 mm 2 mps 759 mmHg 83%
    19:00 +7°C° 0 mm 2 mps 759 mmHg 83%
    20:00 +7°C° 0.2 mm 2 mps 759 mmHg 83%
    21:00 +7°C° 0.2 mm 2 mps 758 mmHg 83%
    22:00 +7°C° 0.2 mm 2 mps 758 mmHg 84%
    23:00 +7°C° 0.3 mm 2 mps 758 mmHg 87%
    Show more